Weather History for PAJN - March, 2013

Change the Weather History Date:

Saturday, March 23, 2013

  Actual Average Record
Temperature  
Mean Temperature 29 °F 35 °F  
Max Temperature 37 °F 41 °F 50 °F (1965)
Min Temperature 21 °F 29 °F 1 °F (1948)
Degree Days  
Heating Degree Days 36 30  
Month to date heating degree days 857 735  
Since 1 July heating degree days 6928 6572  
Cooling Degree Days 0 0  
Month to date cooling degree days 0 0  
Year to date cooling degree days 0 0  
Moisture  
Dew Point 23 °F    
Average Humidity 74    
Maximum Humidity 92    
Minimum Humidity 56    
Precipitation  
Precipitation T in 0.12 in 0.70 in (2010)
Month to date precipitation 1.60 2.92  
Year to date precipitation 15.91 12.40  
Snow  
Snow T in 0.30 in 3.10 in (2010)
Month to date snowfall 8.1 9.8  
Since 1 July snowfall 71.5 83.8  
Snow Depth 3.00 in    
Sea Level Pressure  
Sea Level Pressure 30.23 in    
Wind  
Wind Speed 9 mph (ESE)    
Max Wind Speed 23 mph    
Max Gust Speed 28 mph    
Visibility 10 miles    
Events Snow    
T = Trace of Precipitation, MM = Missing Value Source: NWS Daily Summary

Daily Weather History Graph

Daily Weather History Graph

Search for Another Location

Airport or City:

Trip Planner

Search our weather history database for the weather conditions in past years. The results will help you decide how hot, cold, wet, or windy it might be!

Date:

Astronomy

Mar. 23, 2013 Rise Set
Actual Time 6:50 AM AKDT 7:20 PM AKDT
Civil Twilight 6:10 AM AKDT 8:00 PM AKDT
Nautical Twilight 5:22 AM AKDT 8:48 PM AKDT
Astronomical Twilight 4:30 AM AKDT 9:41 PM AKDT
Moon 3:16 PM AKDT (3/23) 5:14 AM AKDT (3/23)
Length of Visible Light 13h 49m
Length of Day
12h 30m
Waxing Gibbous, 86% of the Moon is Illuminated
Mar 23
Waxing Gibbous
Mar 27
Full
Apr 2
Last Quarter
Apr 10
New
Apr 18
First Quarter

Hourly Weather History & Observations

Time (AKDT) Temp. Windchill Dew Point Humidity Pressure Visibility Wind Dir Wind Speed Gust Speed Precip Events Conditions
12:53 AM 24.1 °F - 18.0 °F 77% 30.30 in 10.0 mi Calm Calm - N/A   Overcast
1:53 AM 26.1 °F 21.9 °F 19.9 °F 78% 30.29 in 10.0 mi SSW 3.5 mph - N/A   Overcast
2:53 AM 25.0 °F - 19.9 °F 81% 30.28 in 10.0 mi Calm Calm - N/A   Overcast
3:53 AM 24.1 °F - 19.9 °F 84% 30.27 in 10.0 mi Calm Calm - N/A   Overcast
4:53 AM 25.0 °F - 19.9 °F 81% 30.27 in 10.0 mi Calm Calm - N/A   Overcast
5:53 AM 21.9 °F 15.7 °F 19.0 °F 89% 30.27 in 10.0 mi SSW 4.6 mph - N/A   Overcast
6:53 AM 21.9 °F 15.7 °F 19.0 °F 89% 30.27 in 10.0 mi East 4.6 mph - N/A   Mostly Cloudy
7:53 AM 28.9 °F 21.1 °F 21.9 °F 75% 30.26 in 10.0 mi East 8.1 mph - N/A   Mostly Cloudy
8:53 AM 30.9 °F 22.8 °F 23.0 °F 72% 30.26 in 10.0 mi ESE 9.2 mph - N/A   Mostly Cloudy
9:53 AM 33.1 °F 24.9 °F 24.1 °F 70% 30.25 in 10.0 mi ESE 10.4 mph - N/A   Mostly Cloudy
10:53 AM 33.1 °F 24.9 °F 25.0 °F 72% 30.25 in 10.0 mi ESE 10.4 mph - N/A   Overcast
11:53 AM 34.0 °F 24.6 °F 25.0 °F 70% 30.24 in 10.0 mi East 13.8 mph - N/A   Overcast
12:53 PM 35.1 °F 25.5 °F 24.1 °F 64% 30.23 in 10.0 mi ESE 15.0 mph - N/A   Overcast
1:53 PM 35.1 °F 24.1 °F 21.9 °F 59% 30.22 in 10.0 mi ESE 19.6 mph - N/A   Overcast
2:53 PM 36.0 °F 25.3 °F 21.9 °F 57% 30.20 in 10.0 mi ESE 19.6 mph - N/A   Overcast
3:53 PM 36.0 °F 25.3 °F 23.0 °F 59% 30.20 in 10.0 mi ESE 19.6 mph - N/A   Overcast
4:53 PM 36.0 °F 25.6 °F 24.1 °F 62% 30.19 in 10.0 mi ESE 18.4 mph - N/A   Overcast
5:53 PM 36.0 °F 26.7 °F 25.0 °F 64% 30.19 in 10.0 mi ESE 15.0 mph - 0.00 in Snow Light Snow
6:53 PM 36.0 °F 28.0 °F 25.0 °F 64% 30.18 in 10.0 mi East 11.5 mph - 0.00 in   Overcast
7:53 PM 35.1 °F 27.9 °F 25.0 °F 67% 30.17 in 10.0 mi ESE 9.2 mph - N/A   Overcast
8:53 PM 35.1 °F 27.9 °F 26.1 °F 70% 30.17 in 10.0 mi East 9.2 mph - N/A   Overcast
9:53 PM 35.1 °F 28.6 °F 26.1 °F 70% 30.17 in 10.0 mi East 8.1 mph - N/A   Overcast
10:53 PM 33.1 °F 28.7 °F 28.0 °F 82% 30.16 in 10.0 mi ENE 4.6 mph - N/A   Overcast
11:53 PM 33.1 °F 30.0 °F 28.0 °F 82% 30.15 in 10.0 mi ESE 3.5 mph - N/A   Overcast